Dewpoint
65 66 67 67 68 69 70 71 72 72 72 72 72 72 72 71 71 71 71 71 70 69 69 69 69 67 69 68 69 68 68 68 67 67 67 67 68 67 66 67 68 68 69 69 70 70 70 70 69 69 69 69 69 67 65 65 62 60 60 60 63 64
66 66 67 68 67 68 69 70 70 70 71 71 72 72 71 71 72 71 71 71 71 70 70 69 70 69 69 68 67 68 68 68 68 67 67 68 67 68 67 67 67 67 69 69 70 70 69 70 70 69 69 69 68 65 65 65 62 58 56 62 63 66
66 67 67 67 67 67 67 66 67 70 70 71 72 72 71 70 70 70 70 69 71 70 68 69 70 70 69 68 68 69 69 68 68 68 68 68 68 67 68 67 67 67 67 69 69 68 68 67 68 69 69 68 66 65 65 65 64 62 59 63 62 68
68 68 68 67 66 65 66 65 65 68 70 70 70 70 70 68 69 69 69 69 70 70 71 71 69 68 70 69 69 69 69 69 68 69 68 68 68 69 68 68 68 67 67 65 64 66 66 65 65 67 67 65 65 64 64 64 61 58 63 64 62 68
68 68 68 67 64 64 65 64 64 67 68 68 69 68 68 68 68 69 67 69 69 68 69 67 69 69 69 69 68 69 69 68 68 68 69 67 68 66 68 65 62 65 63 62 60 62 64 65 66 66 65 65 64 64 63 62 63 60 62 63 64 69
68 67 68 66 65 65 66 64 64 64 67 67 67 67 68 68 69 70 69 70 70 69 68 69 65 67 67 67 68 68 68 68 68 67 68 67 67 65 66 63 60 58 59 60 59 59 60 62 65 66 65 65 65 64 61 61 60 62 63 64 67 69
67 67 67 65 65 65 65 65 65 65 65 66 66 66 66 66 67 69 69 68 69 69 68 73 68 69 69 70 68 68 69 68 68 67 66 66 65 67 66 64 62 60 60 59 57 57 60 60 62 58 61 62 63 61 62 61 61 61 62 65 67 70
67 66 66 65 65 63 65 65 66 66 65 66 65 64 66 66 68 69 71 69 70 70 70 70 69 67 67 67 69 69 71 70 69 68 72 69 68 68 68 67 68 62 59 58 56 57 56 54 60 60 58 59 60 62 63 63 61 62 64 67 67 69
65 65 64 64 62 63 65 66 66 65 68 67 67 66 67 67 66 66 69 70 70 72 71 71 69 68 68 68 69 71 71 70 69 70 72 72 71 71 70 70 68 64 63 60 60 60 58 56 62 63 61 59 59 60 63 62 62 63 62 67 69 67
65 62 63 63 65 65 66 66 65 66 66 66 68 70 68 66 69 67 68 69 70 71 72 70 70 69 69 68 71 71 71 70 70 70 71 72 73 72 71 71 69 66 63 64 63 62 62 59 56 57 56 59 60 59 60 63 64 63 62 65 68 68
64 65 64 62 64 65 66 65 66 65 64 67 69 67 68 68 69 68 69 71 71 71 72 71 70 69 70 70 70 69 70 70 69 73 72 71 72 71 71 70 68 69 69 66 67 66 64 62 62 59 59 56 58 61 61 63 64 64 64 64 67 68
65 67 66 63 65 64 65 65 67 65 66 69 68 68 69 70 72 69 70 71 72 72 71 72 71 69 69 68 68 68 69 70 71 72 72 71 70 70 70 67 68 69 68 69 68 66 66 63 61 58 59 58 58 61 61 68 66 64 64 65 66 68
63 67 69 63 64 65 65 65 66 66 67 69 69 70 70 70 71 71 72 72 72 71 71 71 71 70 68 68 69 72 70 71 71 71 71 71 70 70 68 68 70 70 70 68 69 67 66 66 65 63 62 60 61 59 62 64 64 64 64 65 65 69
65 66 67 66 66 65 67 66 67 69 70 70 71 71 71 72 72 71 71 71 71 70 70 72 69 71 72 70 70 70 70 70 72 72 73 73 71 71 70 69 69 68 68 68 66 67 67 65 65 65 64 62 62 62 62 60 63 63 65 67 66 66
67 67 66 67 67 68 68 68 70 70 70 70 69 70 71 71 71 72 71 71 71 71 69 70 71 72 70 70 69 70 71 72 73 71 72 74 72 71 69 69 69 68 67 67 67 66 65 66 66 64 63 66 65 64 64 63 62 63 64 65 65 64
67 67 68 70 70 69 68 70 70 69 71 70 69 68 70 70 71 71 72 71 70 70 71 71 71 70 73 70 70 71 72 72 72 72 73 71 70 68 69 69 68 67 66 64 64 63 64 66 66 65 66 67 66 66 65 65 64 64 65 66 68 65
69 70 69 69 70 68 69 70 70 70 68 70 70 70 70 70 70 70 72 71 71 72 71 71 72 71 71 70 71 71 72 71 73 71 72 73 69 69 68 67 68 68 67 65 64 63 64 64 64 64 66 66 66 66 66 65 65 66 67 65 63 64
67 67 69 69 69 70 69 68 68 69 69 69 69 71 70 70 68 70 70 70 70 72 72 71 72 71 71 70 70 70 70 71 71 71 70 69 68 67 68 67 67 67 67 66 65 64 64 64 65 65 64 65 65 66 66 66 66 65 65 65 65 66
68 68 68 68 69 69 69 68 69 69 67 68 68 69 70 69 69 68 70 69 70 72 71 70 69 71 72 71 70 69 70 69 70 70 68 67 68 67 67 66 66 65 67 66 65 65 65 65 66 65 64 64 64 65 66 67 66 65 65 65 66 66
68 68 68 69 68 67 67 67 68 68 67 67 67 68 68 68 69 68 68 68 70 72 69 70 69 69 71 70 69 70 70 69 70 71 71 68 68 66 67 66 66 65 65 65 66 65 65 65 65 64 64 64 65 66 65 66 66 65 66 66 66 66
66 66 66 67 67 67 66 66 67 67 66 67 65 66 67 68 69 68 68 69 69 70 69 69 69 70 70 70 71 71 70 70 70 68 68 68 67 67 67 67 67 67 65 64 65 65 66 66 64 63 64 63 63 65 65 66 66 66 67 66 66 66
66 65 66 67 67 67 67 67 67 66 66 67 67 67 66 66 68 68 68 68 69 67 67 67 67 68 68 68 67 67 67 67 67 66 67 67 66 66 66 66 66 66 65 64 64 65 65 64 62 61 60 60 61 62 64 66 66 66 65 66 66 65
66 66 66 66 67 66 67 66 66 66 67 66 66 67 68 68 69 67 68 67 67 67 66 65 65 66 66 66 67 66 66 67 66 66 66 66 65 66 65 65 65 66 65 64 64 66 65 65 62 62 62 61 58 57 63 66 66 66 67 65 65 65
66 66 66 65 67 66 67 67 67 67 66 67 67 68 67 67 67 67 66 65 65 65 64 64 63 63 64 65 65 65 65 65 65 65 65 64 64 64 64 65 64 64 64 62 62 63 64 65 64 62 59 58 58 58 55 60 59 61 63 66 65 65
66 65 66 66 67 67 67 66 67 66 66 66 66 66 65 65 64 65 65 65 64 64 63 63 63 62 62 64 64 65 64 64 65 65 65 64 63 63 63 62 63 63 63 63 61 62 63 64 65 66 62 59 58 56 57 58 60 58 66 65 65 66
66 66 67 66 66 67 66 66 65 64 63 63 62 62 62 63 64 65 64 64 63 62 62 62 61 61 61 62 63 63 63 62 63 63 63 64 63 62 61 61 61 62 62 63 63 62 62 63 63 64 65 63 61 59 58 59 60 56 59 60 62 65
66 66 65 66 66 66 65 65 65 64 64 63 62 62 65 66 65 64 64 63 62 62 60 62 61 60 60 61 61 61 61 61 61 61 61 61 61 61 60 60 60 61 61 62 62 61 61 61 62 62 63 64 65 63 62 60 58 59 57 59 61 61
65 65 65 65 66 66 65 65 65 64 64 63 63 63 64 64 65 64 63 62 62 61 61 60 60 58 59 59 60 60 59 60 60 60 59 59 59 59 60 60 60 61 61 61 60 60 59 59 58 59 60 61 61 61 62 62 62 60 58 57 57 59
65 65 66 66 66 66 65 65 65 64 63 63 63 64 64 64 64 63 62 61 61 61 61 60 58 58 58 58 58 58 59 59 59 58 58 57 57 57 58 58 58 59 59 60 60 59 59 58 58 57 57 57 58 58 58 59 60 61 59 57 57 57
65 65 66 65 65 65 65 65 63 64 63 64 64 64 64 63 63 62 61 61 60 60 59 59 58 57 58 57 57 57 56 57 57 57 57 56 56 57 58 57 58 58 59 58 58 58 58 57 57 57 56 56 56 56 55 56 56 57 57 58 57 57
64 65 65 66 65 66 66 65 64 63 63 64 64 64 62 61 61 60 59 59 59 59 58 57 58 58 57 57 57 57 57 56 57 57 56 55 56 56 56 57 58 58 57 57 56 56 56 56 57 56 56 56 55 55 55 54 54 54 54 55 55 55
64 64 64 63 63 62 62 62 62 61 61 62 61 60 60 59 58 58 58 59 60 59 57 58 58 57 57 56 57 57 56 56 56 55 55 55 55 54 54 55 56 55 55 55 54 54 55 55 55 55 55 55 55 55 55 54 54 55 55 54 54 53
61 61 61 60 61 61 60 60 60 60 60 60 60 59 59 58 58 58 59 58 58 57 56 55 55 55 56 56 56 56 55 55 55 55 54 54 54 54 54 55 54 54 54 53 53 53 53 53 54 53 53 54 54 54 54 55 56 55 55 54 54 52
59 60 59 59 59 59 59 59 60 60 60 59 58 58 57 57 57 57 57 56 56 56 55 55 54 55 55 54 55 55 54 54 54 54 54 54 54 53 54 53 53 52 52 53 53 53 53 53 53 53 53 53 52 53 53 54 53 53 52 52 51 52
58 58 58 58 57 57 57 58 58 59 58 57 57 56 56 57 57 56 56 55 56 55 55 54 54 55 54 55 55 54 54 54 54 53 53 53 53 53 54 53 52 53 52 51 52 53 53 53 52 52 52 51 52 52 53 53 53 53 52 53 52 52
57 57 57 56 56 56 56 57 57 57 57 57 56 55 55 56 56 56 55 54 54 55 55 55 55 54 54 53 54 53 52 52 52 52 52 51 52 51 53 52 52 51 50 51 51 50 51 51 52 52 52 52 51 50 52 51 51 51 51 53 53 53
56 56 56 56 55 55 56 56 56 56 56 56 56 55 54 55 55 55 55 55 55 54 55 55 54 55 54 55 54 54 52 53 53 52 52 51 51 51 51 51 50 50 49 50 50 50 51 51 51 52 51 51 50 51 50 50 50 50 50 50 50 49